STARLINK-2199 (47413 NORAD) Tracking and Keplerian Element Data

This shows tracking and keplerian element data for the satellite.

Feedback or suggestion? Click here.




ElementValue
Catalog47413
NameSTARLINK-2199
Epoch Orbit1200
Epoch Day101.91243181
Epoch Year2021
RAAN164.5266
Inclination97.4998
Eccentricity0.0010954
Argument of Perigee12.11
Mean Anonmoly348.0393
Mean Motion15.14329516
Decay Rate1.036E-05
L11 47413U 21006A 21101.91243181 .00001036 00000-0 60057-4 0 9994
L22 47413 97.4998 164.5266 0010954 12.1100 348.0393 15.14329516 12001

Live tracking and technical data element details for STARLINK-2199 (NORAD 47413). STARLINK-2199 can be tracked NOW for your location showing map with azimuth and elevation plus other details from your city location.

Track the satellite on the map from your city or location and see movement details for azimuth, elevation, latitude, longitude, range, height, and movement on the map or in text.







IsCatalogInMostPopularTable: catalog: 47413, numindb: 15
Update: records affected: 1



GetName: 47413 STARLINK-2199

Hit Count: updated at: Tue, 13 Apr 2021 05:28:22 GMT